Theta_e
304 303 307 307 308 308 307 308 308 309 308 306 307 309 307 305 306 308 307 307 308 308 306 308 305 307 307 308 308 306 304 303 299 302 304 306 307 308 310 314 317 317 319
306 305 306 306 307 307 307 306 306 306 307 305 306 308 308 308 305 306 307 307 306 305 306 305 305 306 307 309 309 305 304 306 302 299 304 305 308 310 311 313 313 316 316
305 305 306 307 306 306 305 305 305 305 305 305 306 308 306 306 306 306 307 309 308 308 308 304 305 305 305 306 308 308 306 306 305 303 303 307 310 313 313 313 312 313 314
305 305 306 307 307 307 305 304 303 304 305 305 307 305 305 305 306 305 307 309 310 309 307 307 306 305 304 304 306 307 307 307 307 306 305 305 311 313 314 311 308 312 312
304 305 306 307 308 308 305 304 304 305 305 305 305 304 305 304 302 303 305 308 309 309 308 307 307 307 306 305 305 306 308 308 307 304 303 304 305 306 306 311 308 310 310
304 304 305 306 307 307 304 304 304 303 303 304 303 303 303 303 298 299 302 308 308 308 306 307 307 306 305 303 305 306 307 305 305 305 304 302 302 304 306 308 309 310 308
303 303 305 306 306 306 303 304 303 302 303 302 303 303 303 304 297 297 299 307 307 306 304 304 303 303 305 302 304 305 306 306 306 305 303 304 302 302 304 306 307 306 307
303 303 305 305 305 306 302 303 303 302 302 301 302 303 303 302 297 296 298 306 306 306 304 302 301 301 301 301 304 305 304 305 307 308 305 304 305 305 305 307 307 307 308
303 303 304 304 304 305 303 302 303 302 302 301 302 302 302 302 296 296 298 303 302 301 301 301 300 299 296 296 301 302 303 303 304 303 302 301 300 301 302 305 302 305 304
303 304 304 304 304 304 304 302 303 302 301 301 301 302 300 301 297 296 296 300 300 299 301 301 298 296 295 295 298 297 298 300 302 303 303 303 304 306 304 304 302 301 304
305 305 304 304 305 305 304 304 302 302 302 302 301 301 301 300 300 296 295 297 297 297 298 298 299 295 294 293 294 297 295 297 300 301 301 301 302 303 305 305 303 302 300
304 304 303 304 303 303 304 304 302 301 301 301 301 300 300 300 298 296 295 294 296 298 298 299 299 293 293 293 295 293 294 296 298 297 298 298 298 300 302 304 305 304 304
303 303 303 303 303 303 302 302 300 300 300 300 299 299 299 299 299 297 295 294 296 296 297 296 295 293 293 295 294 294 295 296 295 295 295 296 298 300 302 303 305 306 304
303 303 303 302 301 302 301 300 300 299 299 298 299 299 299 298 299 299 299 299 297 298 297 299 297 295 294 295 296 296 295 294 293 293 294 296 299 300 301 302 301 303 304
305 304 303 301 302 301 301 301 299 301 298 298 298 298 298 297 297 294 293 295 295 295 294 296 295 295 293 294 294 293 293 292 292 292 291 292 294 296 297 301 302 303 300
303 302 300 300 300 300 299 300 293 292 292 291 290 293 299 294 292 291 291 291 291 291 294 293 292 291 291 290 290 292 291 291 291 292 291 291 292 293 294 297 298 298 298
303 303 302 299 299 299 299 299 298 298 293 292 292 292 292 291 291 291 291 290 291 291 290 289 290 289 290 291 290 290 289 291 292 292 291 291 292 293 293 295 296 296 296
303 295 301 299 300 300 299 300 300 299 299 299 296 294 293 292 291 291 291 292 292 292 291 290 289 290 290 289 289 290 290 291 291 291 292 291 291 292 292 293 294 295 295
301 300 300 300 300 298 300 301 301 300 299 298 297 295 295 293 291 291 291 292 291 290 290 290 290 290 289 289 290 290 290 290 290 290 291 291 291 291 292 293 294 290 291
301 292 294 300 300 301 301 300 300 299 298 296 296 295 297 296 294 293 293 291 290 290 289 289 289 290 289 289 289 289 289 289 290 290 290 291 291 291 291 292 293 294 294
299 300 289 300 301 301 300 300 300 298 297 298 296 295 286 294 292 291 291 291 290 288 289 289 289 289 289 289 289 289 289 289 290 290 290 291 290 290 291 292 293 295 295
299 299 300 301 301 300 299 300 299 298 298 296 295 296 288 294 292 291 291 291 291 291 291 290 289 289 289 289 289 289 288 289 290 291 290 289 289 290 291 292 294 296 298
299 300 301 301 300 295 299 299 299 299 297 295 295 295 293 292 291 291 291 291 290 290 291 291 290 290 291 291 291 290 289 288 289 289 289 289 290 290 292 292 294 295 295
300 301 301 300 299 299 299 299 299 294 296 295 295 293 293 292 291 291 290 291 291 291 291 291 291 291 291 291 291 291 291 290 290 289 290 290 291 291 292 294 295 296 296
301 302 300 300 299 299 299 299 298 298 296 294 293 292 292 291 291 291 291 291 290 290 290 290 291 291 291 291 291 290 289 285 286 287 289 290 291 292 293 294 295 296 297
301 301 300 300 299 299 298 298 298 298 295 293 292 291 291 290 290 290 290 291 290 289 289 291 291 291 291 291 291 286 285 286 286 286 288 291 293 295 296 296 294 293 293
Wind_Speed
6 3 3 4 6 6 7 8 9 10 9 10 9 8 9 9 10 11 10 11 12 12 10 12 11 12 9 7 6 4 6 6 9 11 8 11 13 11 11 8 6 6 6
5 4 5 5 6 6 7 9 10 10 10 9 8 8 9 10 9 11 12 11 11 11 12 12 12 10 13 11 7 4 6 7 6 13 13 10 11 10 8 5 5 6 5
4 5 5 6 6 7 8 10 10 9 9 8 8 8 10 11 11 11 12 11 10 11 11 10 11 12 13 11 10 7 5 6 7 7 11 9 6 4 2 2 5 5 5
3 4 5 6 6 7 9 11 10 9 9 8 7 8 10 11 11 13 12 12 10 10 10 11 12 11 13 13 10 9 9 7 6 6 7 8 4 2 2 1 3 3 6
4 4 6 6 6 6 9 10 8 9 8 8 9 10 11 10 10 13 13 11 9 9 10 11 13 15 20 18 9 10 10 9 7 7 8 6 6 6 8 3 2 1 4
3 5 6 7 6 5 7 8 9 10 10 10 10 10 10 8 15 18 14 9 10 9 11 12 13 14 17 21 20 18 11 9 10 8 7 10 8 7 5 5 1 1 2
4 5 7 6 6 5 5 7 9 10 11 10 9 10 10 10 16 17 19 8 9 9 9 10 11 10 14 15 16 14 11 12 8 7 9 8 8 11 9 5 2 1 1
4 5 6 6 6 4 4 5 7 8 10 8 9 10 9 8 15 16 20 11 9 8 9 10 10 12 14 16 14 12 11 9 11 8 6 7 7 9 9 6 3 2 2
4 6 6 7 6 5 5 5 5 6 7 7 7 9 10 10 12 16 16 11 11 10 8 8 10 12 16 18 14 14 12 9 9 11 10 9 9 11 11 7 7 2 1
5 6 7 7 6 6 5 4 3 4 5 5 8 9 10 10 9 14 14 9 11 10 10 9 6 12 14 14 12 11 12 12 13 12 9 9 10 8 10 8 8 6 2
5 6 6 6 6 6 4 3 4 5 5 5 7 8 10 8 10 11 13 10 9 9 8 8 8 13 14 13 12 10 12 14 11 8 7 6 7 8 7 4 6 5 4
5 6 6 6 5 4 5 5 5 6 6 6 7 7 8 8 8 9 11 10 12 11 10 10 10 13 12 12 10 12 13 11 7 7 7 7 7 7 8 7 5 4 4
5 5 6 5 5 5 6 6 5 5 6 6 6 7 8 8 8 7 9 11 12 11 11 13 13 12 11 9 8 10 10 8 7 7 7 6 7 7 8 6 4 2 2
5 6 5 6 7 6 5 5 5 5 5 5 7 9 9 9 8 9 11 11 11 11 14 12 11 12 10 8 9 8 7 7 7 7 7 7 7 6 4 4 3 4 2
5 5 6 5 5 6 5 5 6 5 4 5 7 9 10 9 10 13 13 10 10 11 12 9 7 8 6 7 8 8 7 7 5 5 5 6 7 6 6 7 5 3 3
5 5 5 6 5 5 6 7 5 6 4 4 7 6 8 8 12 14 14 13 15 13 9 6 7 6 5 8 6 8 5 7 5 5 4 4 5 6 6 5 4 3 2
4 5 6 5 6 6 6 6 7 3 7 5 6 8 8 11 13 13 14 14 11 13 7 7 6 7 7 8 4 8 6 6 7 5 5 4 5 5 5 4 4 3 2
5 3 5 5 6 6 6 6 4 5 7 8 5 7 10 12 15 14 12 11 7 7 5 9 5 7 8 6 6 6 6 6 6 6 6 6 5 5 5 5 4 4 3
4 4 5 5 5 5 6 5 4 6 7 8 9 9 11 13 10 8 10 8 8 7 7 6 6 5 6 6 6 5 7 6 6 6 5 6 5 5 5 5 5 5 3
3 3 3 5 6 6 5 5 6 7 8 8 9 9 11 11 10 10 9 8 6 6 7 7 7 6 5 5 5 5 5 5 5 5 5 5 5 5 5 6 5 4 3
3 4 2 4 5 6 6 6 7 7 7 7 8 7 7 9 9 9 8 7 6 7 7 7 7 6 5 5 5 5 5 5 5 5 5 5 5 5 5 5 5 5 4
4 4 4 5 5 6 6 6 6 7 8 8 8 7 8 8 8 8 8 7 7 7 6 7 7 6 6 6 6 5 5 5 5 5 6 5 6 6 6 5 5 5 4
4 3 4 4 5 4 5 6 7 8 8 8 8 8 8 8 8 8 9 8 7 7 7 7 7 7 6 6 5 5 6 6 5 5 6 7 6 6 5 6 5 5 3
4 4 3 4 5 6 6 6 7 6 7 8 8 8 8 8 8 9 8 8 8 8 7 8 7 9 9 8 6 6 6 6 6 7 9 8 7 7 6 6 5 5 4
4 3 4 5 6 6 6 7 7 8 8 8 8 8 8 8 8 9 8 9 8 9 10 9 7 10 11 13 12 13 12 11 9 9 7 8 9 10 8 6 5 3 1
5 5 5 5 5 5 6 6 7 8 8 7 7 7 7 8 8 9 9 10 9 9 12 9 10 15 14 10 12 15 13 12 10 10 7 6 6 5 4 3 6 4 4
Wind_Direction
51 13 23 351 356 342 332 313 312 306 317 313 317 323 326 327 331 331 331 330 335 338 342 347 334 328 321 311 295 247 263 251 267 288 277 286 293 294 297 298 337 339 335
33 355 5 349 346 339 329 327 323 320 312 312 328 325 319 326 330 330 329 332 332 336 345 341 344 334 337 337 339 276 263 268 266 282 294 298 296 296 291 334 0 356 6
11 349 339 355 348 343 340 342 337 328 326 337 344 327 330 331 331 330 329 330 335 338 347 337 337 336 342 338 343 340 302 287 281 282 297 305 290 283 285 15 9 23 14
9 8 344 348 335 347 351 350 341 331 348 356 358 342 337 335 333 336 328 324 335 345 344 344 351 346 345 338 331 339 339 340 333 330 331 336 332 311 315 5 55 358 51
328 352 339 321 330 349 2 353 346 8 11 8 351 345 344 343 1 335 325 320 328 340 347 347 356 351 351 348 340 337 338 353 355 358 353 346 356 353 342 338 37 220 57
324 348 315 319 330 351 358 3 355 9 2 353 350 347 348 349 347 344 342 327 333 340 343 345 344 350 351 347 345 345 350 359 355 354 357 3 348 339 328 324 287 283 103
11 337 315 324 334 342 348 3 9 7 5 358 354 351 346 354 347 344 346 340 337 351 346 349 343 350 352 348 338 339 348 351 360 352 352 5 348 348 327 321 320 318 66
4 328 328 334 330 318 333 353 12 5 7 354 349 347 343 1 348 348 339 349 344 352 354 351 347 347 355 349 335 345 345 351 350 359 352 342 354 353 347 321 312 15 54
349 338 341 330 318 317 304 342 12 0 355 3 358 354 353 354 352 355 346 346 349 345 348 354 355 350 349 348 342 342 341 347 339 343 341 329 338 355 5 1 0 331 42
349 341 325 312 316 315 293 329 1 336 346 356 4 4 359 347 2 353 356 346 343 342 337 345 2 354 343 348 345 345 336 342 335 339 347 345 352 4 18 16 359 352 30
337 313 316 330 325 306 299 308 304 299 313 341 346 350 356 344 350 349 352 354 348 334 334 337 343 349 338 339 336 352 335 322 332 334 338 345 355 3 10 8 14 11 4
319 319 331 336 323 328 325 327 288 278 287 312 324 333 355 338 342 344 333 332 335 336 334 333 333 334 319 319 329 337 327 326 341 342 347 353 354 354 350 349 359 26 29
318 339 338 327 340 339 335 326 298 271 280 302 318 329 337 344 331 324 310 323 328 331 324 318 295 302 288 296 353 321 329 355 347 346 349 343 339 333 330 348 354 318 53
329 335 330 341 347 355 338 310 300 299 290 297 319 331 331 330 332 342 335 334 324 323 329 318 312 283 304 312 323 353 351 359 353 345 339 333 327 328 346 347 346 344 306
313 324 331 344 354 345 335 316 321 324 311 327 336 329 329 332 334 317 312 325 330 325 318 308 320 327 325 339 341 353 353 352 348 343 336 335 334 341 346 345 346 11 34
334 346 347 336 349 339 323 326 203 275 280 259 280 289 338 319 314 316 313 318 321 325 316 327 340 351 344 338 340 339 342 344 340 337 332 327 322 327 337 342 351 357 19
339 335 334 340 344 337 333 326 336 94 130 101 25 345 308 313 322 325 330 332 345 344 10 338 337 353 330 350 339 334 345 340 336 333 331 329 326 325 327 341 346 348 344
327 262 327 346 348 335 339 337 350 10 358 355 25 333 336 339 332 333 346 336 355 3 351 352 344 341 344 342 333 343 334 335 340 335 337 339 329 321 327 336 336 334 331
340 4 355 346 350 336 336 357 11 6 1 0 354 343 349 343 333 345 346 359 351 343 336 331 332 328 332 332 329 327 328 329 327 328 331 325 325 316 319 322 321 317 313
5 37 341 353 356 357 2 10 3 4 4 357 348 353 350 343 358 356 355 350 342 336 332 330 327 322 322 319 318 318 318 322 323 323 320 317 315 311 310 312 311 307 304
4 17 359 11 2 360 4 3 5 7 356 350 357 0 348 342 351 348 342 339 335 328 325 321 318 316 315 311 311 313 313 310 310 313 307 308 303 304 300 296 296 293 288
5 16 28 19 358 14 2 12 12 4 0 2 348 358 352 353 353 343 339 332 328 323 318 314 309 310 309 309 306 303 303 299 298 301 299 296 294 291 290 290 292 291 294
19 31 41 23 14 10 9 9 9 4 5 358 347 354 355 350 348 340 335 328 325 324 323 317 316 320 321 314 305 292 286 284 284 283 281 282 283 282 285 281 281 284 266
19 32 29 21 24 358 8 5 7 8 11 355 355 354 351 348 342 335 329 327 329 327 322 320 322 326 323 321 312 310 295 287 288 279 276 274 279 278 275 278 277 274 269
27 22 24 11 357 358 360 8 9 4 11 1 356 351 351 347 340 337 332 331 330 330 328 323 326 330 328 324 326 327 319 302 287 279 269 260 266 278 276 273 276 270 216
28 25 22 10 7 6 7 8 11 10 11 1 355 351 347 343 338 336 336 334 336 332 329 327 327 334 329 327 330 322 309 305 303 294 283 276 279 293 315 10 38 46 68